This is the latest recevied weather packets stored in our database for station/object OE3BCB-14. If no packets are shown the sender has not sent any weather packets the latest 10 day(s).
| Time | Temp. | Humidity | Pressure | Rain* | Wind** | Luminosity | Snow |
|---|---|---|---|---|---|---|---|
| 1777390003 | 27.78° C | 19% | 1020 hPa | - | - | 86 W/m² | - |
| 1777389701 | 28.33° C | 20% | 1020 hPa | - | - | 85 W/m² | - |
| 1777389398 | 26.67° C | 20% | 1020 hPa | - | - | 75 W/m² | - |
| 1777388491 | 29.44° C | 19% | 1020 hPa | - | - | 106 W/m² | - |
| 1777388189 | 28.89° C | 19% | 1020 hPa | - | - | 107 W/m² | - |
| 1777387886 | 28.89° C | 20% | 1020.1 hPa | - | - | 109 W/m² | - |
| 1777387584 | 27.78° C | 20% | 1020.1 hPa | - | - | 88 W/m² | - |
| 1777386979 | 28.89° C | 19% | 1020.1 hPa | - | - | 114 W/m² | - |
| 1777386677 | 29.44° C | 19% | 1020.2 hPa | - | - | 93 W/m² | - |
| 1777386374 | 28.89° C | 19% | 1020.3 hPa | - | - | 89 W/m² | - |
| 1777386072 | 29.44° C | 19% | 1020.3 hPa | - | - | 99 W/m² | - |
| 1777385769 | 30.56° C | 18% | 1020.5 hPa | - | - | 113 W/m² | - |
| 1777385467 | 30° C | 19% | 1020.5 hPa | - | - | 132 W/m² | - |
| 1777385164 | 30.56° C | 19% | 1020.5 hPa | - | - | 149 W/m² | - |
| 1777384862 | 29.44° C | 20% | 1020.5 hPa | - | - | 177 W/m² | - |
| 1777384560 | 30° C | 19% | 1020.6 hPa | - | - | 171 W/m² | - |
| 1777384257 | 30° C | 20% | 1020.6 hPa | - | - | 189 W/m² | - |
| 1777383955 | 29.44° C | 20% | 1020.5 hPa | - | - | 179 W/m² | - |
| 1777383652 | 30° C | 20% | 1020.5 hPa | - | - | 145 W/m² | - |
| 1777383350 | 30.56° C | 19% | 1020.6 hPa | - | - | 130 W/m² | - |
| 1777383048 | 30.56° C | 19% | 1020.7 hPa | - | - | 157 W/m² | - |
| 1777382745 | 33.33° C | 18% | 1020.7 hPa | - | - | 126 W/m² | - |
| 1777382443 | 33.33° C | 21% | 1020.8 hPa | - | - | 99 W/m² | - |
| 1777382140 | 30.56° C | 20% | 1020.8 hPa | - | - | 135 W/m² | - |
| 1777381838 | 30.56° C | 20% | 1021 hPa | - | - | 217 W/m² | - |
* Rain since midnight (hover to see other rain measurements)
** Current wind speed in m/s (hover to see current wind gust speed)